Погода в Василикосе

Греция     37°43′08″N   20°58′48″E
В апреле 2022 года жителям России запретили посещать сайт meteo.paraplan.net по решению Генеральной прокуратуры. Аудитория сайта уменьшилась в 10 раз. Владельцы сайта не видят смысла в поддержке погодного сервера в таких условиях. Сайт будет закрыт в октябре.
темп.,
°C
ветер,
м/с
пор.,
м/с
влажн.,
%
обл.,
%
осадки,
мм/ч
давл.,
гПа
погр.,
м
4 октября, вт
вт400:00+22зсз326795 0.0 1012350
03:00+23с777057 0.0 1012731
06:00+22ссв55725 0.0 1012530
09:00+22ссв44673 0.0 1014531
12:00+22юв12602 0.0 1016383
15:00+23ю22650 0.0 1016441
18:00+23юз23640 0.0 1016375
21:00+23сз22630 0.0 1018426
5 октября, ср
ср500:00+23сз11640 0.0 1019401
03:00+22зюз11660 0.2 1020389
06:00+21вюв22700 1.1 1020128
09:00+21вюв54720 1.4 1022361
12:00+21вюв45550 0.1 1023567
15:00+22ю33630 0.3 1023343
18:00+22юз43630 0.2 1023751
21:00+22ю22648 0.4 1024218
6 октября, чт
чт600:00+22юв115898 0.3 1024538
03:00+21в32625 0.4 1024606
06:00+21св446381 0.0 1024563
09:00+20св55575 0.0 1024475
12:00+21ссв55480 0.0 1025695
15:00+22с5546100 0.0 1023452
18:00+22сз5558100 0.0 1023736
21:00+22с4558100 0.0 1023681
7 октября, пт
пт700:00+22с775711 0.0 1023708
03:00+22ссв555690 0.0 1022574
06:00+21св5653100 0.0 1022510
09:00+21св56523 0.0 1022471
12:00+22ссв55470 0.0 1022608
15:00+22с44464 0.0 1021308
18:00+23сз45495 0.0 1020191
21:00+23ссз56595 0.0 1021373
8 октября, сб
сб800:00+23с55595 0.0 1021500
03:00+21в225411 0.0 1020295
06:00+21в115296 0.0 1020284
09:00+21юв11515 0.0 1020264
12:00+21св11515 0.0 1020239
15:00+22ссз334375 0.0 1019317
18:00+23сз345793 0.0 1018342
21:00+22сз446137 0.0 1019426